Regional Weather Roundup
Issued by NWS

Home | Current Version | Previous Version | Graphics & Text | Print | Product List | Glossary On
Versions: 1 2 3 4 5 6 7 8 9 10 11 12 13 14 15 16 17 18 19 20 21 22 23 24 25 26 27 28 29 30 31 32 33 34 35 36 37 38 39 40 41 42 43 44 45 46 47 48 49 50
000
ASUS43 KFSD 180110
RWRSD

WEATHER ROUNDUP FOR SOUTH DAKOTA
NATIONAL WEATHER SERVICE SIOUX FALLS SD
700 PM CST FRI NOV 17 2017

NOTE: "FAIR" INDICATES FEW OR NO CLOUDS BELOW 12,000 FEET WITH NO
SIGNIFICANT WEATHER AND/OR OBSTRUCTIONS TO VISIBILITY.


SDZ001>005-009-010-012>017-180200-
NORTHWEST AND NORTH CENTRAL SOUTH DAKOTA

CITY           SKY/WX    TMP DP  RH WIND       PRES   REMARKS
BUFFALO          N/A     35  30  82 W6        29.64R
FAITH            N/A     37  37 100 W5        29.73R
MOBRIDGE       CLOUDY    36  28  73 CALM      29.70R
$$

SDZ012>016-024>037-041>051-057-063-072>074-180200-
SOUTHWEST AND SOUTH CENTRAL SOUTH DAKOTA

CITY           SKY/WX    TMP DP  RH WIND       PRES   REMARKS
RAPID CTY ARPT CLOUDY    38  36  92 N5        29.72R
PIERRE         CLOUDY    39  33  79 N7        29.71R
CUSTER         CLOUDY    32  30  92 CALM      29.68R
ELLSWORTH AFB  CLOUDY    38  38 100 N5        29.71
PHILIP         LGT RAIN  39  38  96 N8        29.74R
PINE RIDGE     LGT RAIN  40  36  86 N3        29.68R
SPEARFISH      FAIR      34  34 100 W5        29.72F WCI  30
WINNER         CLOUDY    43  35  73 N6        29.71R
$$

SDZ004>011-016>023-039-040-180200-
NORTHEAST SOUTH DAKOTA

CITY           SKY/WX    TMP DP  RH WIND       PRES   REMARKS
ABERDEEN       CLOUDY    33  21  61 N10       29.72R WCI  25
WATERTOWN      CLOUDY    34  29  82 N9        29.68R WCI  27
BROOKINGS      PTCLDY    35  30  82 NE7       29.66S WCI  29
SISSETON         N/A     32  25  75 N8        29.72R WCI  25
$$

SDZ017-020-022-023-036>040-048>070-180200-
SOUTHEAST SOUTH DAKOTA

CITY           SKY/WX    TMP DP  RH WIND       PRES   REMARKS
SIOUX FALLS    CLOUDY    42  34  73 N13       29.65R
HURON          CLOUDY    40  29  64 N10       29.71R
CHAMBERLAIN    CLOUDY    44  37  76 N8        29.69S
MITCHELL       CLOUDY    43  32  65 N10       29.69R
YANKTON        CLOUDY    43  38  82 N12       29.63R
$$

ABBREVIATIONS USED IN REMARKS
   TC - TEMPERATURE IN CELSIUS
  WCI - WIND CHILL INDEX
   HX - HEAT INDEX
  VSB - VISIBILITY





USA.gov is the U.S. government's official web portal to all federal, state and local government web resources and services.